Location: Unspecified
(0.0000°N, 0.0000°E)
Time: 23:43:48
(UTC+00:00)

SR - Pass Details

Date: 14 December 2018
Orbit: 581 x 876 km, 66.7° (Epoch: 18 January)

Event Time Altitude Azimuth Distance (km) Brightness Sun altitude
Rises 12:11:11 0° 356° (N) 2,827 ? 66.4°
Reaches altitude 10° 12:13:37 10° 6° (N) 1,906 ? 66.3°
Maximum altitude 12:17:26 32° 70° (ENE) 993 ? 66.1°
Drops below altitude 10° 12:21:13 10° 134° (SE) 1,896 ? 65.9°
Sets 12:23:37 0° 144° (SE) 2,809 ? 65.7°
